STARLINK-1246, 45235

Orbit data source: Space-Track

STARLINK-1246, 45235 is a payload satellite owned by SpaceX/Seattle (US) in LEO that was launched on Mon, 17 Feb 2020 UTC via an FALCON 9 launch vehicle from the Air Force Eastern Test Range (AFETR). Payload-class satellites include a variety of spacecraft equipped with specific instruments for various scientific and technological missions. These include communications satellites like Starlink; space stations such as the ISS; scientific satellites like the Hubble; Earth observation satellites from companies like Planet Labs, Umbra, and HawkEye 360; GPS; miniature CubeSats for education and research; and military/defense satellites.

Loading next visibility...
Identifier
45235, 2020-012BK
Orbit
LEO
Country
Flag of USUS
Related business
Manufacturer
SpaceX/Seattle
Mission
Partially operational Commercial Communications
Bus & Motor
STARLINK, Unknown motor
Mass
260 kg wet, ~248 kg dry
Launch date (UTC)
2020-02-17 (7 years ago)
Launch vehicle
FALCON 9
Launch site
Air Force Eastern Test Range (AFETR)
Object type
Payload
Rocket body
Debris
Shape & HBR
Box + 1 Pan, 10.1 m
Radar Cross Section
13.562 m², Large (>1 m²)

Expand to show TLE details & history
Last TLE update: 10 hours ago

TLE from 10 hours ago
0 STARLINK-1246
1 45235U 20012BK  26253.99606780  .00042911  00000-0  96383-3 0  9996
2 45235  53.1513 251.4200 0003337  87.3774 272.7614 15.42958392363442
Epoch: 2026-09-10T23:54Z
TLE epoch observation values (Epoch: 2026-09-10T23:54:20.257Z)
Latitude
-0.00006°
Longitude
-97.19021°
Altitude
438.178 km
Speed
7.65 km/s
True Right ascension
16h 45m 40s
True Declination
0° 00' 00"
Sunlit
Object was in daylight at epoch
Visualization orbit readout
Latitude
Unknown
Longitude
Unknown
Altitude
Unknown
Speed
Unknown
Apparent Right ascension
Unknown
Apparent Declination
Unknown
Sunlit
N/A
Visualization observer readout
Local Sidereal Time
02:23:20
Azimuth
Unknown
Elevation
Unknown
Doppler factor
Unknown
Orbital elements
Apogee altitude
439.917 km
Perigee altitude
435.368 km
Semi-major axis
6,815.78 km
Eccentricity
0.00033
Inclination
53.1513°
RAAN
251.42°
Arg. of periapsis
87.3774°
True anomaly
272.7232°
Mean anomaly
272.7614°
Eccentric anomaly
272.7423°
Mean motion
3.85718 °/min
Orbital period
93.33 mins
BSTAR
0.00096383
Loading maneuver chart data...
Computing Atmospheric mass density...

Documentation

Showing up to 5 results
|